Home > Weather > Schwerte > Past weeks

Flag for Germany Past Weather in Schwerte, North Rhine-Westphalia, Germany — Yesterday and Last 2 Weeks

Now
63 °F

Partly sunny.


Feels Like: 63 °F
Forecast: 51 / 70 °F
Wind: 2 mph from North

Location: Dortmund / Wickede

Current Time: May 26, 2016 at 12:49:30 PM

Latest Report: May 26, 2016 at 12:20 PM


Visibility: N/A

Pressure: 30.04 "Hg

Humidity: 59%

Dew Point: 48 °F

Location of SchwerteLocation

Past Weather in Schwerte — Graph

°F

Schwerte Temperature Yesterday

Maximum temperature yesterday: 61 °F (at 4:50 PM)
Minimum temperature yesterday: 48 °F (at 5:20 AM)
Average temperature yesterday: 54 °F

High & Low Weather Summary for the Past Weeks

 TemperatureHumidityPressure
High75 °F (May 12, 2:50 PM)94% (May 23, 6:50 PM)30.12 "Hg (May 23, 6:50 PM)
Low39 °F (May 15, 5:20 AM)29% (May 12, 2:50 PM)29.50 "Hg (May 12, 1:50 PM)
Average57 °F62%29.89 "Hg
* Reported May 11 11:20 AM — May 26 11:50 AM, Schwerte, Weather by CustomWeather, © 2016

Note: Actual official high and low records may vary slightly from our data, if they occured in-between our weather recording intervals... More about our weather records

Advertising

Schwerte Weather History for the Previous 24 Hours

Scroll right to see more
 ConditionsComfort  
Time TempWeatherWind HumidityBarometerVisibility
11:50 AM
Thu, May 26
63 °FPartly sunny.2 mph59%30.04 "HgN/A
11:20 AM63 °FScattered clouds.No wind52%30.04 "HgN/A
10:50 AM64 °FScattered clouds.2 mph60%30.04 "HgN/A
10:20 AM61 °FScattered clouds.3 mph59%30.04 "HgN/A
9:50 AM61 °FSunny.2 mph59%30.04 "Hg10 mi
9:20 AM59 °FSunny.3 mph63%30.04 "Hg10 mi
8:50 AM59 °FClear.5 mph68%30.04 "Hg6 mi
8:20 AM55 °FClear.6 mph72%30.04 "Hg5 mi
7:50 AM54 °FClear.5 mph77%30.04 "Hg4 mi
7:20 AM52 °FPassing clouds.6 mph82%30.04 "Hg4 mi
6:50 AM50 °FClear.8 mph82%30.01 "Hg4 mi
6:20 AM48 °FClear.9 mph87%30.01 "Hg5 mi
5:50 AM48 °FClear.8 mph87%30.01 "Hg6 mi
5:20 AM46 °FClear.7 mph87%30.01 "Hg5 mi
9:50 PM
Wed, May 25
55 °FPartly sunny.7 mph72%30.01 "HgN/A
9:20 PM57 °FPartly sunny.7 mph67%29.98 "HgN/A
8:50 PM57 °FPartly sunny.6 mph67%29.98 "HgN/A
8:20 PM57 °FPartly sunny.7 mph67%29.98 "HgN/A
7:50 PM59 °FPartly sunny.6 mph63%29.98 "HgN/A
7:20 PM59 °FPartly sunny.6 mph59%29.98 "HgN/A
6:50 PM59 °FPartly sunny.6 mph59%29.98 "HgN/A
6:20 PM59 °FPartly sunny.7 mph59%29.98 "HgN/A
5:50 PM61 °FPartly sunny.6 mph59%29.98 "HgN/A
5:20 PM59 °FScattered clouds.3 mph59%29.98 "HgN/A
4:50 PM61 °FPartly sunny.5 mph59%29.98 "HgN/A
4:20 PM59 °FPartly sunny.5 mph59%29.98 "HgN/A
3:50 PM59 °FPartly sunny.3 mph59%29.98 "HgN/A
3:20 PM57 °FPartly sunny.3 mph59%29.98 "HgN/A
2:50 PM59 °FPartly sunny.2 mph59%29.98 "HgN/A
2:20 PM55 °FPartly sunny.3 mph63%29.98 "HgN/A
1:50 PM55 °FPartly sunny.5 mph67%30.01 "HgN/A
1:20 PM54 °FPartly sunny.5 mph72%29.98 "Hg6 mi
12:50 PM54 °FPartly sunny.5 mph72%30.01 "Hg6 mi
12:20 PM54 °FPartly sunny.6 mph72%30.01 "Hg4 mi
Weather by CustomWeather, © 2016

See weather overviewHow to use our weather pages